Regional Weather Roundup
Issued by NWS

Home | Current Version | Previous Version | Graphics & Text | Print | Product List | Glossary On
Versions: 1 2 3 4 5 6 7 8 9 10 11 12 13 14 15 16 17 18 19 20 21 22 23 24 25 26 27 28 29 30 31 32 33 34 35 36 37 38 39 40 41 42 43 44 45 46 47 48 49 50
000
ASUS43 KLSX 291407
RWRMO

WEATHER SUMMARY FOR MISSOURI
NATIONAL WEATHER SERVICE SPRINGFIELD MO
800 AM CST MON DEC 29 2014

NOTE: "FAIR" INDICATES FEW OR NO CLOUDS BELOW 12,000 FEET WITH NO
       SIGNIFICANT WEATHER AND/OR OBSTRUCTIONS TO VISIBILITY.
       CURRENT SKY AND/OR WEATHER CONDITIONS ARE NOT AVAILABLE FOR
       CHILLICOTHE AND FARMINGTON.

MOZ001>031-035>038-043-044-053-054-291500-
...NORTHERN AND WESTERN MISSOURI...

CITY           SKY/WX    TMP DP  RH WIND       PRES   REMARKS
KANSAS CTY INT PTCLDY    25  21  85 CALM      30.26R
KANSAS C DTWN  CLEAR     25  21  85 NW3       30.29R
LEE`S SUMMIT   CLEAR     24  20  84 E3        30.27R
ST JOSEPH      CLOUDY    21  18  88 N3        30.29R
CHILLICOTHE      N/A     22  19  89 CALM      30.30R
KIRKSVILLE     CLEAR     22  18  85 N8        30.30R WCI  12

$$
MOZ066>068-077>081-088>096-101>105-291500-
...SOUTHWEST MISSOURI...

CITY           SKY/WX    TMP DP  RH WIND       PRES   REMARKS
SPRINGFIELD    CLEAR     20  17  88 CALM      30.22R
JOPLIN         CLEAR     22  19  89 E3        30.22S FOG

$$
MOZ032>034-039>042-045>050-055>058-069>072-291500-
...CENTRAL MISSOURI...

CITY           SKY/WX    TMP DP  RH WIND       PRES   REMARKS
COLUMBIA       CLEAR     25  23  92 E5        30.27R WCI  19
JEFFERSON CITY CLEAR     19  17  92 CALM      30.30R
ROLLA          CLEAR     23  21  92 E6        30.24R FOG     WCI  16
SEDALIA        CLEAR     23  20  88 NE3       30.28R
WHITEMAN AFB   CLEAR     21  18  86 E5        30.27R WCI  15
WARRENSBURG    CLEAR     21  19  93 CALM      30.28R
OSAGE BEACH    CLEAR     16  12  86 CALM      30.26R

$$
MOZ051-052-059>065-291500-
...EAST CENTRAL MISSOURI...

CITY           SKY/WX    TMP DP  RH WIND       PRES   REMARKS
ST LOUIS INTL  PTCLDY    25  20  81 CALM      30.31R
SPIRIT OF STL  FOG       23  19  85 CALM      30.31R VSB 1/8
ST CHARLES     CLEAR     22  21  96 CALM      30.32R FOG

$$
MOZ072>076-082>087-097>100-106>115-291500-
...SOUTH CENTRAL AND SOUTHEAST MISSOURI...

CITY           SKY/WX    TMP DP  RH WIND       PRES   REMARKS
CAPE GIRARDEAU PTCLDY    30  25  81 N9        30.28R WCI  22
FARMINGTON     PTCLDY    21  19  93 CALM      30.27R
POPLAR BLUFF   CLOUDY    30  24  78 NE12      30.27R WCI  20
WEST PLAINS    CLOUDY    24  22  91 E6        30.22R FOG     WCI  17

$$


USA.gov is the U.S. government's official web portal to all federal, state and local government web resources and services.